Location: Unspecified
(0.0000°N, 0.0000°E)
Time: 12:20:33
(UTC+02:00)

IUS-9 SRM-1 - Visible Passes

Search period start: 24 October 2014 00:00
Search period end: 02 November 2014 23:00
Orbit: 252 x 20605 km, 26.5° (Epoch: 23 October)

Date Brightness Start Highest point End Pass type
(mag) Time Alt. Az. Time Alt. Az. Time Alt. Az.
24 Oct 7.3 03:02:52 52° NE 03:02:52 52° NE 03:14:52 10° NE visible
24 Oct 7.3 22:29:50 10° WSW 03:08:54 52° NE 03:20:42 10° NE visible
25 Oct 7.1 15:54:34 10° WSW 16:03:48 46° S 19:02:18 10° ESE visible
25 Oct 7.3 22:36:50 10° WSW 02:14:49 51° NNE 02:26:20 10° NE visible
26 Oct 7.2 15:00:13 10° WSW 15:10:04 45° S 18:37:06 10° ESE visible
26 Oct 7.2 21:43:39 10° WSW 02:20:32 50° NNE 02:31:47 10° NE visible
27 Oct 7.3 15:05:40 10° WSW 15:16:12 44° S 18:59:13 10° E visible
27 Oct 7.2 21:50:19 10° WSW 02:26:02 49° NNE 02:37:01 10° NE visible
28 Oct 7.4 15:10:58 10° WSW 15:22:13 43° S 19:15:45 10° E visible
28 Oct 7.2 21:56:49 10° WSW 02:31:21 48° NNE 02:42:04 10° NE visible
29 Oct 7.5 15:16:04 10° WSW 15:28:05 43° S 19:29:09 10° E visible
29 Oct 7.1 22:03:10 10° WSW 02:36:27 47° NNE 02:46:55 10° NE visible
30 Oct 7.6 15:21:01 10° WSW 15:33:50 42° S 19:40:31 10° E visible
30 Oct 7.1 22:09:20 10° WSW 02:41:22 46° NNE 02:51:34 10° NE visible
31 Oct 7.7 15:25:46 10° WSW 15:39:27 42° S 19:48:51 11° E visible
31 Oct 7.1 22:15:21 10° WSW 02:46:04 45° NNE 02:56:02 10° NE visible
01 Nov 7.7 15:30:20 10° WSW 15:44:57 41° S 19:53:17 12° E visible
01 Nov 7.1 22:21:13 10° WSW 02:50:36 44° N 03:00:18 10° NE visible
02 Nov 7.8 15:34:44 10° WSW 15:50:20 41° S 19:57:34 14° E visible
02 Nov 10.2 22:26:56 10° WSW 23:00:00 25° WSW 23:00:00 25° WSW visible
